Temp
85 88 88 89 90 89 80 83 92 89 90 89 89 89 90 89 89 89 90 87 88 91
85 85 88 89 90 92 91 86 85 87 89 90 90 89 88 90 90 89 90 90 89 89
87 87 87 89 88 89 92 91 80 78 91 90 90 89 87 90 90 88 91 93 90 90
87 90 88 88 88 88 90 90 90 87 88 88 88 89 85 85 89 86 87 89 87 88
88 91 91 89 89 89 87 89 89 88 86 87 87 88 85 85 87 86 85 86 86 87
89 91 91 88 89 89 87 87 90 86 86 85 87 86 86 87 87 87 88 88 86 86
88 91 91 89 90 90 86 86 87 88 85 86 85 85 87 87 86 87 88 89 88 85
89 89 89 87 87 89 86 86 85 85 85 87 87 91 87 85 85 85 85 86 89 90
87 87 87 87 87 86 85 85 84 84 84 83 90 80 74 82 87 83 82 83 83 87
85 84 84 84 85 83 82 83 82 83 82 84 85 69 67 69 87 88 83 82 81 84
82 81 81 80 80 80 81 82 82 82 83 82 83 67 65 68 83 84 83 83 80 77
78 77 77 76 77 77 80 79 79 80 80 80 80 66 64 70 82 83 82 80 82 77
79 78 78 77 76 76 77 77 76 76 77 66 78 61 61 67 81 81 83 80 76 68
78 79 78 77 77 77 76 76 74 73 74 74 71 65 60 58 71 73 72 73 71 68
MSLP
1014.35 1014.39 1014.46 1014.42 1014.58 1014.60 1014.91 1015.02 1014.57 1015.53 1015.85 1016.32 1016.60 1016.76 1016.75 1017.54 1017.69 1017.61 1017.47 1017.65 1017.63 1017.16
1013.54 1013.84 1013.76 1013.95 1014.25 1014.35 1014.17 1014.70 1015.06 1014.68 1015.36 1015.65 1016.01 1016.32 1016.70 1016.77 1016.85 1017.08 1017.16 1017.08 1017.10 1017.23
1012.66 1013.16 1013.43 1013.67 1013.89 1013.78 1013.83 1013.98 1013.92 1014.36 1014.46 1015.21 1015.59 1015.95 1016.42 1016.25 1016.40 1016.75 1016.72 1016.41 1016.48 1016.58
1012.12 1012.26 1012.79 1013.12 1013.38 1013.71 1013.86 1013.98 1014.00 1014.19 1014.38 1014.81 1015.32 1015.40 1016.14 1016.35 1016.01 1016.46 1016.52 1016.48 1016.39 1016.23
1011.35 1011.38 1011.58 1012.31 1012.71 1013.15 1013.52 1013.76 1013.86 1014.14 1014.44 1014.76 1015.00 1015.13 1015.51 1015.94 1015.97 1016.04 1016.04 1016.29 1016.38 1016.16
1010.41 1010.48 1010.76 1011.30 1011.86 1012.33 1012.85 1013.17 1013.21 1013.51 1013.95 1014.33 1014.47 1014.72 1014.88 1015.07 1015.21 1015.38 1015.26 1015.39 1015.71 1015.94
1009.86 1009.82 1010.24 1010.84 1011.20 1011.51 1012.18 1012.60 1012.71 1012.88 1013.30 1013.63 1013.92 1014.23 1014.25 1014.44 1014.58 1014.65 1014.53 1014.55 1014.78 1015.04
1008.86 1009.46 1009.82 1010.30 1010.75 1010.87 1011.39 1012.01 1012.45 1012.68 1012.74 1012.97 1013.16 1013.03 1013.35 1013.81 1013.89 1013.88 1014.10 1013.98 1014.04 1014.23
1008.82 1009.12 1009.48 1009.89 1010.30 1010.76 1011.15 1011.53 1011.96 1012.19 1012.48 1012.61 1012.36 1012.15 1012.43 1012.82 1013.06 1013.51 1013.75 1013.90 1013.92 1013.88
1008.88 1009.21 1009.50 1009.83 1010.13 1010.45 1010.86 1011.26 1011.52 1011.73 1011.92 1011.96 1012.10 1012.29 1012.39 1012.80 1012.74 1012.53 1012.97 1013.40 1013.66 1013.53
1008.93 1009.36 1009.68 1009.93 1010.20 1010.49 1010.71 1010.81 1010.96 1011.17 1011.35 1011.58 1011.80 1012.30 1012.70 1013.00 1012.89 1012.72 1012.79 1012.92 1013.04 1013.29
1009.30 1009.59 1009.89 1010.17 1010.36 1010.59 1010.67 1010.84 1010.97 1011.20 1011.34 1011.50 1011.77 1012.28 1012.53 1012.88 1012.77 1012.47 1012.44 1012.49 1012.64 1012.79
1009.30 1009.61 1009.76 1010.12 1010.45 1010.66 1010.80 1011.00 1011.29 1011.43 1011.71 1012.18 1012.00 1012.73 1012.89 1013.06 1012.76 1012.13 1012.13 1012.39 1012.55 1012.67
1009.36 1009.61 1009.95 1010.13 1010.44 1010.63 1010.87 1011.10 1011.49 1011.69 1011.89 1012.13 1012.49 1012.95 1013.25 1013.55 1013.45 1013.19 1012.97 1012.56 1012.94 1013.37
Wind_Speed
14 10 10 10 9 7 6 10 13 13 11 10 9 9 8 8 8 8 8 8 7 9
15 14 11 12 12 10 10 13 14 13 12 11 11 10 9 9 8 7 6 8 8 8
15 14 13 10 11 9 9 9 9 10 11 11 10 11 9 9 9 8 8 9 8 7
13 15 14 13 12 11 11 10 9 6 10 8 8 11 9 10 9 9 9 9 8 7
18 17 16 15 15 12 12 13 11 10 10 10 11 10 10 12 11 11 10 10 10 11
14 16 16 13 15 14 13 13 15 13 13 12 13 12 11 11 11 12 12 12 11 12
17 15 15 14 15 15 14 13 13 13 13 13 13 13 13 13 13 13 13 12 13 10
12 13 13 14 14 12 12 14 13 12 12 12 14 13 15 14 14 13 13 13 13 13
10 10 11 11 11 11 11 11 11 12 12 13 12 13 13 14 14 13 12 12 12 12
10 10 10 9 10 11 12 11 12 12 12 13 13 5 1 4 13 13 10 11 12 13
6 5 5 6 8 8 8 11 11 12 13 12 10 10 5 5 8 10 12 12 10 12
5 5 5 5 6 6 9 10 9 10 11 11 10 7 6 5 10 12 13 10 11 10
6 6 6 5 5 3 3 3 3 4 2 7 4 6 3 4 9 12 10 8 8 11
6 6 5 6 5 4 5 5 5 5 3 3 2 6 8 5 5 7 7 5 3 4
Wind_Direction
202 214 222 199 228 243 175 274 169 182 202 219 191 228 197 203 224 228 227 225 257 289
195 213 212 228 205 234 251 177 236 172 196 208 214 206 213 230 224 237 255 244 231 240
200 202 214 224 228 226 239 245 141 263 188 207 215 213 217 226 214 233 249 243 239 227
217 206 207 216 217 225 235 245 241 218 228 204 241 218 200 250 275 200 238 254 284 227
211 214 208 213 217 214 218 229 228 217 219 225 219 237 208 227 231 251 237 235 250 259
212 209 218 201 216 212 214 223 229 214 219 216 222 223 227 222 227 239 237 223 230 240
214 217 222 213 221 212 210 221 226 231 219 222 225 223 232 225 228 229 237 229 229 230
204 215 211 210 225 227 214 217 227 230 239 233 235 230 219 230 232 222 238 247 231 236
220 219 216 223 221 222 227 232 223 228 235 239 246 242 213 212 231 232 241 244 247 262
213 219 224 225 227 229 224 225 232 236 239 236 237 144 195 268 245 252 228 238 254 247
209 210 220 223 232 231 239 240 237 240 234 239 245 153 219 209 241 249 258 258 259 246
189 188 200 214 219 224 225 233 243 247 248 242 247 166 176 201 254 244 246 246 257 257
180 188 198 204 215 216 264 269 273 274 2 40 288 78 75 226 255 260 258 255 260 264
147 145 140 169 165 173 196 182 198 172 174 169 23 98 76 42 276 288 308 288 307 59